Location: La Bastide
(43.1661°N, 1.2755°E)
Time: 23:07:43
(UTC+00:00)

Cosmos 1937 Rocket - Pass Details

Date: 13 December 2025
Orbit: 743 x 775 km, 74.0° (Epoch: 19 January)

Event Time Altitude Azimuth Distance (km) Brightness Sun altitude
Rises 17:20:42 0° 169° (S) 3,201 6.9 -10.7°
Reaches altitude 10° 17:23:19 10° 158° (SSE) 2,275 6.0 -11.2°
Maximum altitude 17:27:42 29° 100° (E) 1,364 4.3 -11.9°
Enters shadow 17:30:55 16° 50° (NE) 1,910 5.0 -12.5°
